Weather in Kal'ya

Russia / Sverdlovsk Oblast     60°14′30″N   59°59′15″E
temp.,
°C
wind,
m/s
gust,
m/s
humid.,
%
clouds,
%
prec.,
mm/h
press.,
hPa
HPBL,
m
16 may, sun
sun1623:00+17sw227067 0.6 101419
02:00+14wsw2281100 0.3 101529
05:00+14ssw118498 0.6 101416
08:00+19nw0168100 0.1 1014294
11:00+23sse1256100 0.4 1015832
14:00+28wsw511329 0.3 10132326
17:00+29wsw613275 0.3 10113061
20:00+26wsw5133112 0.0 10101449
17 may, mon
mon1723:00+22wsw41245100 0.0 1011462
02:00+17ssw1162100 0.0 101116
05:00+16sw3974100 0.1 1012218
08:00+21wsw475298 0.0 1012715
11:00+24wsw51043100 0.0 10112168
14:00+24w7103657 0.0 10112944
17:00+22w5114177 0.0 10112167
20:00+20wnw5135196 0.0 10111513
18 may, tue
tue1823:00+16w237384 0.1 101261
02:00+13nw12875 0.0 101339
05:00+12nne378892 0.0 1015300
08:00+8n51277100 0.0 1019688
11:00+9n487496 0.1 1022809
14:00+14nne465561 0.0 10231228
17:00+15ne3447100 0.0 10231379
20:00+13ne23530 0.0 1024564
19 may, wed
wed1923:00+9w11715 0.0 102610
02:00+8wsw1176100 0.0 102610
05:00+8sw1176100 0.0 102612
08:00+14ssw125422 0.0 1026375
11:00+19ssw12388 0.0 10251317
14:00+23ssw123010 0.0 10231925
17:00+24w122796 0.0 10222223
20:00+20w364154 0.0 1021280
20 may, thu
thu2023:00+13w216414 0.0 102116
02:00+12wsw117015 0.0 102111
05:00+11wsw22704 0.0 102123
08:00+19wsw24451 0.0 1020303
11:00+25wnw23300 0.0 10191433
14:00+27wnw23250 0.0 10181969
17:00+27wnw33240 0.0 10172145
20:00+23w25380 0.0 1017157